| time (UTC) | temp C | wind direction | speed KPH | gust KPH | rain 1hr cm | rain 24hr cm | rain mn cm | humidity % | barometer mb |
| 20260507082806 | 18 | 279 | 3.2 | 8.0 | 0.00 | 0.18 | 0.18 | 68 | 1014.1 |
| 20260507081804 | 19 | 274 | 4.8 | 8.0 | 0.00 | 0.18 | 0.18 | 73 | 1014.0 |
| 20260507080806 | 18 | 286 | 1.6 | 8.0 | 0.00 | 0.18 | 0.18 | 73 | 1013.9 |
| 20260507080325 | 17 | 281 | 1.6 | 9.7 | 0.00 | 0.18 | 0.18 | 81 | 1013.8 |
| 20260507075924 | 18 | 268 | 3.2 | 6.4 | 0.00 | 0.18 | 0.18 | 77 | 1013.9 |
| 20260507073805 | 17 | 295 | 1.6 | 4.8 | 0.00 | 0.18 | 0.18 | 85 | 1013.9 |
| 20260507072807 | 16 | 155 | 0.0 | 6.4 | 0.00 | 0.18 | 0.18 | 85 | 1013.8 |
| 20260507071804 | 16 | 141 | 1.6 | 4.8 | 0.00 | 0.18 | 0.18 | 86 | 1014.0 |
| 20260507070805 | 16 | 151 | 3.2 | 6.4 | 0.00 | 0.18 | 0.18 | 88 | 1013.9 |
| 20260507070305 | 15 | 71 | 0.0 | 3.2 | 0.00 | 0.18 | 0.18 | 90 | 1013.9 |
| 20260507065919 | 15 | 134 | 1.6 | 4.8 | 0.00 | 0.18 | 0.18 | 88 | 1013.9 |
| 20260507063806 | 15 | 71 | 1.6 | 4.8 | 0.00 | 0.18 | 0.18 | 91 | 1013.8 |
| 20260507063428 | 15 | 178 | 0.0 | 4.8 | 0.00 | 0.18 | 0.18 | 91 | 1013.8 |
| 20260507061804 | 15 | 96 | 1.6 | 6.4 | 0.00 | 0.20 | 0.18 | 92 | 1013.8 |
| 20260507060802 | 15 | 73 | 3.2 | 4.8 | 0.00 | 0.23 | 0.18 | 92 | 1013.9 |
| 20260507055804 | 15 | 343 | 0.0 | 4.8 | 0.00 | 0.23 | 0.18 | 92 | 1013.7 |
| 20260507054803 | 14 | 87 | 0.0 | 4.8 | 0.00 | 0.23 | 0.18 | 92 | 1013.6 |
| 20260507053802 | 14 | 87 | 1.6 | 4.8 | 0.00 | 0.23 | 0.18 | 92 | 1013.6 |
| 20260507052803 | 14 | 87 | 0.0 | 4.8 | 0.00 | 0.23 | 0.18 | 91 | 1013.6 |
| 20260507051810 | 13 | 87 | 3.2 | 4.8 | 0.00 | 0.23 | 0.18 | 92 | 1013.5 |
| 20260507050806 | 13 | 87 | 3.2 | 4.8 | 0.00 | 0.23 | 0.18 | 92 | 1013.4 |
| 20260507045806 | 13 | 87 | 1.6 | 3.2 | 0.03 | 0.20 | 0.18 | 92 | 1013.2 |
| 20260507045449 | 13 | 87 | 1.6 | 4.8 | 0.03 | 0.20 | 0.18 | 92 | 1013.0 |
| 20260507043804 | 13 | 87 | 3.2 | 4.8 | 0.03 | 0.20 | 0.18 | 92 | 1012.9 |
| 20260507043216 | 13 | 1 | 3.2 | 6.4 | 0.03 | 0.20 | 0.18 | 91 | 1012.7 |
| 20260507042917 | 13 | 357 | 1.6 | 6.4 | 0.03 | 0.20 | 0.18 | 92 | 1012.7 |
| 20260507040803 | 13 | 227 | 0.0 | 6.4 | 0.05 | 0.20 | 0.18 | 91 | 1012.7 |
| 20260507035806 | 13 | 231 | 1.6 | 6.4 | 0.05 | 0.18 | 0.15 | 91 | 1012.4 |
| 20260507034806 | 13 | 243 | 0.0 | 6.4 | 0.08 | 0.18 | 0.15 | 91 | 1012.4 |
| 20260507033802 | 13 | 278 | 3.2 | 4.8 | 0.10 | 0.18 | 0.15 | 90 | 1012.5 |
| 20260507032805 | 13 | 278 | 0.0 | 3.2 | 0.15 | 0.18 | 0.15 | 90 | 1012.5 |
| 20260507031806 | 13 | 278 | 1.6 | 6.4 | 0.15 | 0.18 | 0.15 | 90 | 1012.5 |
| 20260507030802 | 14 | 288 | 3.2 | 3.2 | 0.15 | 0.18 | 0.15 | 89 | 1012.5 |
| 20260507025801 | 14 | 247 | 1.6 | 4.8 | 0.13 | 0.05 | 0.13 | 88 | 1012.6 |
| 20260507024800 | 14 | 241 | 3.2 | 6.4 | 0.08 | 0.05 | 0.08 | 87 | 1012.5 |
| 20260507023806 | 15 | 220 | 3.2 | 6.4 | 0.05 | 0.05 | 0.05 | 86 | 1012.4 |
| 20260507022759 | 15 | 269 | 4.8 | 8.0 | 0.03 | 0.05 | 0.03 | 83 | 1012.4 |
| 20260507021756 | 15 | 302 | 6.4 | 14.5 | 0.03 | 0.05 | 0.00 | 81 | 1012.3 |
| 20260507020756 | 15 | 278 | 6.4 | 11.3 | 0.00 | 0.05 | 0.00 | 80 | 1012.1 |
| 20260507015755 | 16 | 279 | 6.4 | 9.7 | 0.00 | 0.05 | 0.00 | 79 | 1012.0 |
| 20260507014754 | 16 | 271 | 3.2 | 4.8 | 0.00 | 0.05 | 0.00 | 78 | 1011.9 |
| 20260507013753 | 16 | 261 | 3.2 | 4.8 | 0.00 | 0.05 | 0.00 | 77 | 1012.0 |
| 20260507012755 | 16 | 264 | 3.2 | 6.4 | 0.00 | 0.05 | 0.00 | 77 | 1011.9 |
| 20260507011752 | 16 | 247 | 3.2 | 6.4 | 0.00 | 0.05 | 0.00 | 77 | 1011.9 |
| 20260507010958 | 16 | 283 | 3.2 | 6.4 | 0.00 | 0.05 | 0.00 | 74 | 1011.9 |
| 20260507010942 | 16 | 290 | 8.0 | 14.5 | 0.00 | 0.05 | 0.00 | 75 | 1011.8 |
| 20260507010825 | 16 | 282 | 4.8 | 17.7 | 0.00 | 0.05 | 0.00 | 76 | 1011.9 |
| 20260507003751 | 16 | 295 | 3.2 | 4.8 | 0.00 | 0.05 | 0.00 | 73 | 1012.1 |
| 20260507002754 | 16 | 313 | 0.0 | 3.2 | 0.00 | 0.05 | 0.00 | 73 | 1012.2 |
| 20260507002436 | 16 | 313 | 1.6 | 6.4 | 0.00 | 0.05 | 0.00 | 74 | 1012.2 |
| 20260507000748 | 16 | 17 | 0.0 | 4.8 | 0.00 | 0.05 | 0.00 | 74 | 1012.2 |
| 20260506235747 | 16 | 0 | 3.2 | 8.0 | 0.00 | 0.05 | 0.00 | 75 | 1012.2 |
| 20260506234751 | 16 | 42 | 3.2 | 6.4 | 0.00 | 0.05 | 0.00 | 75 | 1012.3 |
| 20260506233751 | 16 | 35 | 4.8 | 6.4 | 0.00 | 0.05 | 0.00 | 75 | 1012.3 |
| 20260506232749 | 16 | 86 | 4.8 | 9.7 | 0.00 | 0.05 | 0.00 | 74 | 1012.4 |
| 20260506231749 | 16 | 288 | 0.0 | 3.2 | 0.00 | 0.05 | 0.00 | 71 | 1012.4 |
| 20260506230748 | 17 | 288 | 0.0 | 9.7 | 0.00 | 0.05 | 0.00 | 71 | 1012.3 |
| 20260506225747 | 17 | 302 | 3.2 | 6.4 | 0.00 | 0.05 | 0.00 | 71 | 1012.3 |
| 20260506224747 | 17 | 310 | 3.2 | 6.4 | 0.00 | 0.05 | 0.00 | 70 | 1012.3 |
| 20260506223747 | 17 | 314 | 4.8 | 6.4 | 0.00 | 0.05 | 0.00 | 70 | 1012.5 |
| 20260506222748 | 17 | 337 | 4.8 | 8.0 | 0.00 | 0.05 | 0.00 | 71 | 1012.5 |
| 20260506221750 | 17 | 0 | 3.2 | 8.0 | 0.00 | 0.05 | 0.00 | 71 | 1012.5 |
| 20260506220748 | 17 | 298 | 3.2 | 6.4 | 0.00 | 0.05 | 0.00 | 71 | 1012.4 |
| 20260506215747 | 17 | 288 | 0.0 | 8.0 | 0.00 | 0.05 | 0.05 | 70 | 1012.5 |
| 20260506214745 | 17 | 274 | 1.6 | 6.4 | 0.00 | 0.05 | 0.05 | 69 | 1012.5 |
| 20260506213749 | 17 | 329 | 3.2 | 14.5 | 0.00 | 0.05 | 0.05 | 69 | 1012.4 |
| 20260506212745 | 17 | 78 | 6.4 | 9.7 | 0.00 | 0.05 | 0.05 | 71 | 1012.4 |
| 20260506211744 | 17 | 18 | 0.0 | 8.0 | 0.00 | 0.05 | 0.05 | 71 | 1012.5 |
| 20260506210828 | 16 | 63 | 4.8 | 6.4 | 0.00 | 0.05 | 0.05 | 71 | 1012.5 |
| 20260506210757 | 17 | 21 | 1.6 | 4.8 | 0.00 | 0.05 | 0.05 | 71 | 1012.5 |
| 20260506205427 | 17 | 285 | 4.8 | 8.0 | 0.00 | 0.05 | 0.05 | 75 | 1012.5 |
| 20260506205327 | 17 | 254 | 0.0 | 6.4 | 0.00 | 0.05 | 0.05 | 76 | 1012.5 |
| 20260506205307 | 17 | 224 | 0.0 | 4.8 | 0.00 | 0.05 | 0.05 | 76 | 1012.6 |
| 20260506204829 | 17 | 300 | 0.0 | 3.2 | 0.00 | 0.05 | 0.05 | 71 | 1012.4 |
| 20260506204003 | 17 | 193 | 0.0 | 6.4 | 0.00 | 0.05 | 0.05 | 72 | 1012.6 |
| 20260506195746 | 17 | 157 | 3.2 | 6.4 | 0.00 | 0.05 | 0.05 | 77 | 1012.6 |
| 20260506194744 | 17 | 319 | 4.8 | 6.4 | 0.00 | 0.05 | 0.05 | 78 | 1012.4 |
| 20260506193744 | 17 | 41 | 1.6 | 4.8 | 0.00 | 0.05 | 0.05 | 80 | 1012.4 |
| 20260506192945 | 17 | 241 | 0.0 | 3.2 | 0.00 | 0.05 | 0.05 | 80 | 1012.1 |
| 20260506192804 | 17 | 261 | 0.0 | 4.8 | 0.00 | 0.05 | 0.05 | 80 | 1012.2 |
| 20260506191058 | 17 | 266 | 3.2 | 4.8 | 0.00 | 0.05 | 0.05 | 80 | 1011.8 |
| 20260506190822 | 17 | 248 | 0.0 | 4.8 | 0.00 | 0.05 | 0.05 | 79 | 1012.0 |
| 20260506184747 | 17 | 228 | 3.2 | 3.2 | 0.00 | 0.05 | 0.05 | 80 | 1011.9 |
| 20260506183743 | 18 | 80 | 0.0 | 0.0 | 0.00 | 0.05 | 0.05 | 78 | 1011.7 |
| 20260506182741 | 18 | 80 | 0.0 | 0.0 | 0.00 | 0.05 | 0.05 | 78 | 1011.7 |
| 20260506181744 | 18 | 80 | 1.6 | 6.4 | 0.00 | 0.05 | 0.05 | 79 | 1011.7 |
| 20260506180739 | 18 | 32 | 0.0 | 4.8 | 0.00 | 0.05 | 0.05 | 77 | 1011.7 |
| 20260506175740 | 18 | 75 | 3.2 | 4.8 | 0.00 | 0.05 | 0.05 | 77 | 1011.5 |
| 20260506174738 | 18 | 75 | 4.8 | 6.4 | 0.00 | 0.05 | 0.05 | 79 | 1011.5 |
| 20260506173741 | 18 | 47 | 1.6 | 4.8 | 0.00 | 0.05 | 0.05 | 81 | 1011.5 |
| 20260506172741 | 18 | 47 | 1.6 | 4.8 | 0.00 | 0.05 | 0.05 | 81 | 1011.3 |
| 20260506171741 | 18 | 4 | 0.0 | 8.0 | 0.00 | 0.05 | 0.05 | 80 | 1011.3 |
| 20260506170740 | 19 | 62 | 3.2 | 8.0 | 0.00 | 0.05 | 0.05 | 78 | 1011.1 |
| 20260506165742 | 19 | 69 | 4.8 | 8.0 | 0.00 | 0.05 | 0.05 | 78 | 1011.2 |
| 20260506164743 | 19 | 86 | 0.0 | 4.8 | 0.00 | 0.05 | 0.05 | 78 | 1011.2 |
| 20260506163739 | 20 | 86 | 0.0 | 4.8 | 0.00 | 0.05 | 0.05 | 78 | 1011.3 |
| 20260506162738 | 20 | 86 | 3.2 | 4.8 | 0.00 | 0.05 | 0.05 | 76 | 1011.2 |
| 20260506161739 | 20 | 86 | 3.2 | 6.4 | 0.00 | 0.05 | 0.05 | 75 | 1011.2 |
| 20260506160738 | 20 | 93 | 3.2 | 6.4 | 0.00 | 0.05 | 0.05 | 71 | 1011.3 |
| 20260506155742 | 20 | 131 | 0.0 | 3.2 | 0.00 | 0.05 | 0.05 | 66 | 1011.2 |
| 20260506154739 | 21 | 155 | 1.6 | 4.8 | 0.00 | 0.05 | 0.05 | 61 | 1011.1 |
| 20260506153735 | 21 | 235 | 1.6 | 4.8 | 0.00 | 0.05 | 0.05 | 58 | 1011.1 |
| 20260506152739 | 21 | 251 | 3.2 | 16.1 | 0.00 | 0.05 | 0.05 | 57 | 1011.0 |
| 20260506152255 | 21 | 182 | 3.2 | 8.0 | 0.00 | 0.05 | 0.05 | 56 | 1010.9 |
| 20260506151901 | 21 | 269 | 3.2 | 11.3 | 0.00 | 0.05 | 0.05 | 56 | 1010.8 |
| 20260506145734 | 22 | 310 | 3.2 | 9.7 | 0.00 | 0.05 | 0.05 | 55 | 1010.8 |
| 20260506144736 | 22 | 168 | 3.2 | 11.3 | 0.00 | 0.05 | 0.05 | 55 | 1010.7 |
| 20260506143734 | 22 | 196 | 4.8 | 16.1 | 0.00 | 0.05 | 0.05 | 54 | 1010.6 |
| 20260506142735 | 22 | 243 | 4.8 | 14.5 | 0.00 | 0.05 | 0.05 | 56 | 1010.6 |
| 20260506142358 | 22 | 210 | 4.8 | 9.7 | 0.00 | 0.05 | 0.05 | 55 | 1010.5 |
| 20260506141220 | 22 | 262 | 3.2 | 8.0 | 0.00 | 0.05 | 0.05 | 55 | 1010.7 |
| 20260506140857 | 22 | 0 | 3.2 | 9.7 | 0.00 | 0.05 | 0.05 | 54 | 1010.7 |
| 20260506134741 | 23 | 357 | 4.8 | 11.3 | 0.00 | 0.05 | 0.05 | 52 | 1010.9 |
| 20260506133735 | 24 | 175 | 3.2 | 8.0 | 0.00 | 0.05 | 0.05 | 50 | 1011.0 |
| 20260506132734 | 25 | 343 | 1.6 | 11.3 | 0.00 | 0.05 | 0.05 | 48 | 1011.0 |
| 20260506131736 | 25 | 250 | 4.8 | 20.9 | 0.00 | 0.05 | 0.05 | 49 | 1011.1 |
| 20260506130735 | 25 | 243 | 4.8 | 14.5 | 0.00 | 0.05 | 0.05 | 50 | 1011.0 |
| 20260506130244 | 24 | 165 | 4.8 | 11.3 | 0.00 | 0.05 | 0.05 | 52 | 1011.3 |
| 20260506125844 | 25 | 220 | 6.4 | 19.3 | 0.00 | 0.05 | 0.05 | 51 | 1011.3 |
| 20260506123735 | 24 | 165 | 3.2 | 8.0 | 0.00 | 0.05 | 0.05 | 53 | 1011.3 |
| 20260506122733 | 24 | 279 | 1.6 | 9.7 | 0.00 | 0.05 | 0.05 | 52 | 1011.4 |
| 20260506121731 | 24 | 234 | 4.8 | 11.3 | 0.00 | 0.05 | 0.05 | 55 | 1011.3 |
| 20260506120732 | 23 | 221 | 1.6 | 20.9 | 0.00 | 0.05 | 0.05 | 55 | 1011.3 |
| 20260506115732 | 23 | 288 | 4.8 | 11.3 | 0.00 | 0.05 | 0.05 | 56 | 1011.2 |
| 20260506114733 | 23 | 200 | 3.2 | 8.0 | 0.00 | 0.05 | 0.05 | 60 | 1011.3 |
| 20260506113732 | 22 | 188 | 3.2 | 19.3 | 0.00 | 0.05 | 0.05 | 66 | 1011.3 |
| 20260506112733 | 21 | 100 | 6.4 | 16.1 | 0.00 | 0.05 | 0.05 | 71 | 1011.4 |
| 20260506111730 | 21 | 103 | 4.8 | 16.1 | 0.00 | 0.05 | 0.05 | 72 | 1011.7 |
| 20260506110733 | 20 | 162 | 3.2 | 14.5 | 0.00 | 0.05 | 0.05 | 73 | 1011.5 |
| 20260506105729 | 20 | 78 | 6.4 | 14.5 | 0.00 | 0.05 | 0.05 | 71 | 1011.7 |
| 20260506105423 | 20 | 97 | 3.2 | 17.7 | 0.00 | 0.05 | 0.05 | 75 | 1011.9 |
| 20260506103731 | 20 | 82 | 4.8 | 11.3 | 0.00 | 0.05 | 0.05 | 73 | 1012.0 |
| 20260506102731 | 21 | 71 | 4.8 | 11.3 | 0.00 | 0.05 | 0.05 | 70 | 1012.0 |
| 20260506101729 | 21 | 90 | 4.8 | 9.7 | 0.00 | 0.05 | 0.05 | 64 | 1012.1 |
| 20260506100727 | 21 | 58 | 9.7 | 14.5 | 0.00 | 0.05 | 0.05 | 63 | 1012.0 |
| 20260506095731 | 21 | 159 | 4.8 | 11.3 | 0.00 | 0.05 | 0.05 | 65 | 1012.1 |
| 20260506094731 | 20 | 121 | 3.2 | 14.5 | 0.00 | 0.05 | 0.05 | 70 | 1012.2 |
| 20260506093728 | 21 | 93 | 11.3 | 17.7 | 0.00 | 0.05 | 0.05 | 68 | 1012.0 |
| 20260506093621 | 21 | 110 | 9.7 | 20.9 | 0.00 | 0.05 | 0.05 | 62 | 1012.1 |
| 20260506091729 | 21 | 164 | 9.7 | 17.7 | 0.00 | 0.05 | 0.05 | 66 | 1012.1 |
| 20260506090733 | 20 | 118 | 4.8 | 11.3 | 0.00 | 0.05 | 0.05 | 70 | 1012.1 |
| 20260506085728 | 20 | 68 | 6.4 | 16.1 | 0.00 | 0.05 | 0.05 | 68 | 1012.2 |
| 20260506084729 | 20 | 82 | 8.0 | 14.5 | 0.00 | 0.05 | 0.05 | 67 | 1012.1 |
| 20260506083730 | 20 | 97 | 4.8 | 11.3 | 0.00 | 0.05 | 0.05 | 67 | 1012.1 |